Погода в Анастасиевской

Россия / Краснодарский край     45°12′56″N   37°53′41″E
темп.,
°C
ветер,
м/с
пор.,
м/с
влажн.,
%
обл.,
%
осадки,
мм/ч
давл.,
гПа
погр.,
м
17 мая, пн
пн1700:00+19ююз369490 0.0 1002105
03:00+18ю347881 0.0 100241
06:00+16ююз4980100 0.0 1004306
09:00+20ююз476928 0.0 1006663
12:00+23ююз675899 0.0 1007951
15:00+22юз566275 0.0 1007906
18:00+20юз67695 0.0 1008826
21:00+16ююз5117767 0.0 1010573
18 мая, вт
вт1800:00+15юз51283100 0.0 1010524
03:00+13ю33931 0.0 101056
06:00+13ю38901 0.0 1011307
09:00+19юз796317 0.0 10111074
12:00+22ююз79500 0.0 10101857
15:00+22ююз784818 0.0 10101437
18:00+19ю486517 0.0 1009537
21:00+16ю3977100 0.1 1009310
19 мая, ср
ср1900:00+15юз3886100 0.1 1009289
03:00+14зюз5995100 5.7 1009492
06:00+13юз61194100 7.4 1010527
09:00+17юз710727 9.6 10101037
12:00+19юз1013573 0.8 10121592
15:00+19юз11135662 0.9 10131844
18:00+17юз8136994 0.1 10141102
21:00+15юз714825 0.1 1015737
20 мая, чт
чт2000:00+14юз814835 0.0 1015617
03:00+14юз613850 0.0 1015484
06:00+13ююз39895 0.0 1015291
09:00+19ююз345512 0.0 1015915
12:00+22ююв33413 0.0 10141413
15:00+24вюв434225 0.0 10131337
18:00+21в586295 0.0 1012494
21:00+16в412770 0.0 1012249
21 мая, пт
пт2100:00+15в310785 0.0 1011215
03:00+14в358916 0.0 1010102
06:00+14в3789100 0.0 1010164
09:00+22вюв576411 0.0 1009318
12:00+28в58450 0.0 1008644
15:00+31вюв67430 0.0 1007875
18:00+28в58650 0.0 1007501
21:00+21в36911 0.0 100790